GW4987 Weather Reports


Display with metric or nautical units.
time (UTC)temp
F
wind
direction
speed
MPH
gust
MPH
rain 1hr
in
rain 24hr
in
rain mn
in
humidity
%
barometer
mb
20260504192012 60 122 8.0 18.0 0.00 0.00 0.00 47 1015.7
20260504191502 60 139 23.0 30.0 0.00 0.00 0.00 44 1015.6
20260504191012 59 137 14.0 24.0 0.00 0.00 0.00 46 1015.9
20260504190547 60 152 25.0 26.0 0.00 0.00 0.00 44 1015.9
20260504190002 59 131 7.0 24.0 0.00 0.00 0.00 46 1016.2
20260504185546 58 168 15.0 28.0 0.00 0.00 0.00 47 1016.3
20260504185011 60 157 10.0 26.0 0.00 0.00 0.00 43 1016.1
20260504184549 60 140 15.0 24.0 0.00 0.00 0.00 45 1016.2
20260504184047 58 173 11.0 29.0 0.00 0.00 0.00 48 1016.4
20260504183547 58 218 22.0 27.0 0.00 0.00 0.00 43 1016.2
20260504183011 59 132 11.0 18.0 0.00 0.00 0.00 46 1016.1
20260504182547 58 107 7.0 21.0 0.00 0.00 0.00 48 1016.1
20260504182047 60 161 9.0 16.0 0.00 0.00 0.00 45 1015.9
20260504181547 58 190 11.0 20.0 0.00 0.00 0.00 48 1015.9
20260504181047 59 139 8.0 16.0 0.00 0.00 0.00 48 1016.3
20260504180547 58 191 11.0 18.0 0.00 0.00 0.00 48 1016.3
20260504180011 58 182 9.0 19.0 0.00 0.00 0.00 47 1016.3
20260504175546 58 138 8.0 21.0 0.00 0.00 0.00 48 1016.0
20260504174011 58 207 17.0 21.0 0.00 0.00 0.00 45 1016.0
20260504173547 58 154 7.0 19.0 0.00 0.00 0.00 47 1015.9
20260504173011 58 158 9.0 18.0 0.00 0.00 0.00 48 1016.1
20260504172546 58 227 12.0 20.0 0.00 0.00 0.00 48 1016.1
20260504172046 59 118 13.0 15.0 0.00 0.00 0.00 47 1016.2
20260504171546 58 115 14.0 19.0 0.00 0.00 0.00 48 1016.3
20260504171047 58 119 10.0 14.0 0.00 0.00 0.00 47 1016.3
20260504170547 58 185 7.0 13.0 0.00 0.00 0.00 47 1015.9
20260504151012 55 148 6.0 8.0 0.00 0.00 0.00 47 1015.9
20260504150555 54 177 7.0 11.0 0.00 0.00 0.00 49 1016.0
20260504141011 51 146 8.0 16.0 0.00 0.00 0.00 57 1015.8
20260504140555 51 137 9.0 15.0 0.00 0.00 0.00 57 1015.6
20260504130555 51 136 7.0 12.0 0.00 0.00 0.00 57 1015.5
20260504110513 50 101 3.0 6.0 0.00 0.00 0.00 59 1015.7
20260504100555 52 127 8.0 10.0 0.00 0.00 0.00 56 1015.8
20260504050556 59 208 4.0 5.0 0.00 0.00 0.00 35 1016.3
20260504045555 59 192 6.0 11.0 0.00 0.00 0.00 35 1016.2
20260504045055 59 199 4.0 7.0 0.00 0.00 0.00 36 1016.0
20260504044556 60 189 2.0 12.0 0.00 0.00 0.00 36 1015.9
20260504044012 60 152 5.0 11.0 0.00 0.00 0.00 36 1016.1
20260504043555 60 162 7.0 11.0 0.00 0.00 0.00 36 1016.1
20260504043056 60 322 4.0 20.0 0.00 0.00 0.00 35 1016.0
20260504041013 61 194 8.0 13.0 0.00 0.00 0.00 36 1015.9
20260504040555 61 200 7.0 7.0 0.00 0.00 0.00 36 1015.9
20260504040055 61 196 7.0 9.0 0.00 0.00 0.00 35 1015.9
20260504035555 61 212 8.0 11.0 0.00 0.00 0.00 35 1015.9
20260504035055 61 203 8.0 9.0 0.00 0.00 0.00 35 1015.9
20260504031555 63 188 7.0 16.0 0.00 0.00 0.00 29 1015.4
20260504031055 63 187 5.0 15.0 0.00 0.00 0.00 29 1015.4
20260504030556 63 205 6.0 12.0 0.00 0.00 0.00 28 1015.2
20260504030012 63 182 8.0 20.0 0.00 0.00 0.00 28 1015.0
20260504025556 64 220 13.0 24.0 0.00 0.00 0.00 27 1015.2
20260504025056 64 215 15.0 22.0 0.00 0.00 0.00 27 1015.3
20260504024512 64 219 15.0 26.0 0.00 0.00 0.00 26 1015.1
20260504024012 64 211 20.0 20.0 0.00 0.00 0.00 26 1015.0
20260504023556 64 184 7.0 21.0 0.00 0.00 0.00 26 1015.2
20260504023012 64 184 7.0 20.0 0.00 0.00 0.00 25 1015.2
20260504022555 64 187 9.0 21.0 0.00 0.00 0.00 25 1015.0
20260504022056 65 241 8.0 23.0 0.00 0.00 0.00 24 1015.0
20260504020055 66 194 5.0 15.0 0.00 0.00 0.00 23 1014.6
20260504015555 66 207 16.0 17.0 0.00 0.00 0.00 23 1014.7
20260504015013 66 188 11.0 17.0 0.00 0.00 0.00 22 1014.7
20260504014555 67 168 12.0 14.0 0.00 0.00 0.00 23 1014.6
20260504014056 67 172 12.0 15.0 0.00 0.00 0.00 22 1014.5
20260504013555 68 213 7.0 15.0 0.00 0.00 0.00 22 1014.6
20260504013055 68 208 10.0 15.0 0.00 0.00 0.00 22 1014.7
20260504012555 68 218 15.0 16.0 0.00 0.00 0.00 23 1014.7
20260504012013 68 165 7.0 18.0 0.00 0.00 0.00 23 1014.7
20260504011555 68 181 17.0 22.0 0.00 0.00 0.00 22 1014.9
20260504011056 68 181 8.0 25.0 0.00 0.00 0.00 23 1014.6
20260504010512 69 196 15.0 17.0 0.00 0.00 0.00 22 1014.5
20260504010012 69 198 10.0 19.0 0.00 0.00 0.00 22 1014.7
20260504005556 69 150 8.0 16.0 0.00 0.00 0.00 22 1015.0
20260504005012 69 159 12.0 24.0 0.00 0.00 0.00 23 1015.0
20260504004555 69 209 12.0 26.0 0.00 0.00 0.00 22 1015.0
20260504004056 70 153 9.0 17.0 0.00 0.00 0.00 22 1014.9
20260504003556 70 168 10.0 17.0 0.00 0.00 0.00 21 1015.1
20260504003056 70 205 12.0 21.0 0.00 0.00 0.00 22 1015.2
20260504002556 71 204 18.0 19.0 0.00 0.00 0.00 22 1015.1
20260504002056 70 202 10.0 24.0 0.00 0.00 0.00 23 1015.0
20260504001513 70 146 8.0 22.0 0.00 0.00 0.00 23 1015.1
20260504001012 70 138 9.0 22.0 0.00 0.00 0.00 23 1015.0
20260504000555 70 137 17.0 31.0 0.00 0.00 0.00 22 1015.2
20260504000056 70 188 16.0 20.0 0.00 0.00 0.00 22 1015.1
20260503235555 70 257 12.0 19.0 0.00 0.00 0.00 22 1015.0
20260503235055 70 157 6.0 23.0 0.00 0.00 0.00 22 1015.2
20260503234556 71 181 5.0 19.0 0.00 0.00 0.00 21 1015.1
20260503234013 71 201 12.0 21.0 0.00 0.00 0.00 20 1015.3
20260503233555 70 177 11.0 27.0 0.00 0.00 0.00 21 1015.2
20260503233056 70 204 26.0 28.0 0.00 0.00 0.00 23 1015.1
20260503232513 70 225 12.0 24.0 0.00 0.00 0.00 23 1015.1
20260503232012 71 169 12.0 22.0 0.00 0.00 0.00 22 1015.3
20260503231555 70 228 15.0 30.0 0.00 0.00 0.00 22 1015.1
20260503231012 70 180 21.0 26.0 0.00 0.00 0.00 24 1015.3
20260503230555 73 146 13.0 16.0 0.00 0.00 0.00 22 1015.2
20260503230055 72 157 10.0 14.0 0.00 0.00 0.00 23 1015.1
20260503225555 72 207 12.0 20.0 0.00 0.00 0.00 25 1015.2
20260503225013 70 212 8.0 25.0 0.00 0.00 0.00 25 1015.4
20260503224555 72 172 9.0 21.0 0.00 0.00 0.00 25 1015.3
20260503224055 71 103 7.0 22.0 0.00 0.00 0.00 25 1015.4
20260503223555 71 154 8.0 18.0 0.00 0.00 0.00 25 1015.7
20260503223012 73 209 10.0 25.0 0.00 0.00 0.00 24 1015.6
20260503222555 71 177 7.0 24.0 0.00 0.00 0.00 25 1015.7
20260503222056 71 137 11.0 21.0 0.00 0.00 0.00 25 1015.4
20260503221555 72 140 12.0 16.0 0.00 0.00 0.00 25 1015.8
20260503221055 72 132 7.0 28.0 0.00 0.00 0.00 25 1015.9
20260503220556 72 183 12.0 21.0 0.00 0.00 0.00 25 1016.0
20260503214512 72 141 8.0 20.0 0.00 0.00 0.00 24 1016.1
20260503214012 72 153 15.0 21.0 0.00 0.00 0.00 26 1016.1
20260503213536 70 141 5.0 23.0 0.00 0.00 0.00 27 1016.2
20260503213055 71 143 11.0 22.0 0.00 0.00 0.00 27 1016.3
20260503212555 72 147 6.0 16.0 0.00 0.00 0.00 26 1016.2
20260503212056 73 141 2.0 13.0 0.00 0.00 0.00 26 1016.5
20260503211556 71 141 7.0 18.0 0.00 0.00 0.00 27 1016.5
20260503211014 70 189 12.0 30.0 0.00 0.00 0.00 27 1017.0
20260503210555 70 160 7.0 17.0 0.00 0.00 0.00 27 1016.8
20260503210055 72 146 10.0 23.0 0.00 0.00 0.00 27 1016.7
20260503205556 72 186 10.0 24.0 0.00 0.00 0.00 26 1016.7
20260503205013 71 152 13.0 20.0 0.00 0.00 0.00 26 1017.0
20260503204555 71 184 21.0 25.0 0.00 0.00 0.00 25 1017.0
20260503204056 72 207 16.0 23.0 0.00 0.00 0.00 24 1017.2
20260503202012 71 211 10.0 23.0 0.00 0.00 0.00 25 1017.3
20260503201555 71 211 11.0 23.0 0.00 0.00 0.00 23 1017.0
20260503201055 73 176 18.0 22.0 0.00 0.00 0.00 21 1017.4
20260503200512 70 184 6.0 29.0 0.00 0.00 0.00 26 1017.1
20260503200013 71 176 12.0 24.0 0.00 0.00 0.00 24 1017.1
20260503195555 71 184 13.0 17.0 0.00 0.00 0.00 28 1017.4
20260503195013 72 172 14.0 22.0 0.00 0.00 0.00 26 1017.4
20260503194555 70 139 9.0 18.0 0.00 0.00 0.00 26 1017.7
20260503194055 72 196 10.0 18.0 0.00 0.00 0.00 23 1017.5
20260503193555 71 142 6.0 30.0 0.00 0.00 0.00 25 1017.6
20260503193013 72 152 8.0 17.0 0.00 0.00 0.00 27 1017.7
20260503192555 71 201 10.0 24.0 0.00 0.00 0.00 28 1017.6